sat.trackr.live / text

‹ back to catalog

STARLINK-34486

NORAD 64597 · 2025-137D

PAYLOAD ACTIVE UNKNOWN

§ Identity

Operator
Country
US
Launch date
2025-06-25
Launch site
AFETR
Launch vehicle
Mass (kg)
RCS (m²)

Purposes: comms

External: N2YO · Heavens-Above · Gunter

§ Orbital elements

Epoch: 2026-09-20T10:09:21.436992Z

Period
93.85 min
Inclination
53.1580°
Eccentricity
0.0001096
Mean motion
15.34423202 rev/d
Perigee alt
461.9 km
Apogee alt
463.4 km
Semi-major
6,840.8 km
B*
7.1084e-4
RAAN
149.7121°
Arg perigee
74.7887°
Mean anomaly
285.3236°
Rev number
7,056

§ Raw data

STARLINK-344861 64597U 25137D   26263.42316478  .00023734  00000+0  71084-3 0  99942 64597  53.1580 149.7121 0001096  74.7887 285.3236 15.34423202 70560

JSON: /api/v1/satellites/64597 · /tle

For live sub-satellite position, see the globe view (requires WebGL).

§ Visibility from observer

Set your observer location to see the next 7 days of passes ≥ 10°. The values pass through the URL so the page stays shareable.

No JS? Fill the form by hand. The geolocation button needs JavaScript.